星链-37034(STARLINK-37034)

导读

STARLINK-37034(NORAD编号68171)是美国太空探索技术公司(SpaceX)星链项目的低轨互联网卫星,采用Starlink V1.0平台,运行在近地轨道,倾角约70度,近地点约570千米,远地点约574千米,主要为全球提供高速低延迟卫星互联网服务。 2025年12月,该卫星在轨发生异常,轨道高度骤降约4000米,产生数十块碎片后与地面失联。SpaceX称卫星大致保持完整但处于翻滚状态,预计会在几周内再入地球大气层完全烧毁,目前正联合美国太空军、NASA监测碎片情况,事故或由卫星内部问题引发。

基本信息
目录编号:
68171
目录名称:
STARLINK-37034
国际标识:
2026-050E
轨道中心:
EARTH
卫星名称:
星链-37034
卫星全名:
星链-37034(STARLINK-37034)
卫星状态:
在轨 (已飞行181 天)
发射日期:
2026-03-14 UTC
国别 :
美国 (US)
星等 :
--
该卫星已列入 空间交会检测服务 Space Conjunction Data Service (SCDS) ,当前飞行风险评估等级: 高风险
轨道信息
数据来源 国际轨道数据
星历时间: 2026-09-10T06:10:10+0800
1天前
查看轨道信息
半长轴: 6840.86km
偏心率: 0.0001056
轨道倾角: 53.158°
近地点辐角 44.902°
升交点赤经 127.216°
平近点角 315.207°
近地点: 462km
远地点: 463.446km
周期: 93.848分钟
每日圈数: 15.343936
详细信息
固有亮度:
5
最大亮度:
2.5
卫星平台:
Starlink V1.0
覆盖范围:
全球
运营商:
太空探索技术公司
运营商所在国:
美国
制造商(研发单位):
太空探索技术公司
制造商所在国:
美国
使用方式:
暂无
卫星简介
Starlink 计划是 SpaceX 推出的全球卫星互联网项目,通过发射低轨道卫星,为全球尤其是偏远地区提供高速、低延迟的互联网服务。自 2019 年起,Starlink 已部署数千颗卫星,旨在缩小全球数字鸿沟,推动互联网普及。该项目还为军事、航空等行业提供通信支持,带来广泛经济效益。
2D轨道图
3D轨道图
轨道高度分析图
轨道倾角分析图
轨道综合分析图
查看轨道综合分析图
交会数据列表
事件ID 空间交会对象 最接近时刻(TCA) 交会距离 交会风险概率(CRP) 交会风险指数(CRI) 操作
CDM_260913-140206-370506-817121
2026-09-13T
14:02:12+0000
0.315 km
远距离
2.773451E-4 高风险 0.84
CDM_260913-034906-627606-817121
2026-09-13T
03:49:49+0000
0.517 km
远距离
1.242954E-4 高风险 0.77
CDM_260913-135906-627606-817121
2026-09-13T
13:59:25+0000
0.575 km
远距离
9.424373E-5 中风险 0.74
CDM_260912-191806-618806-817121
2026-09-12T
19:18:46+0000
0.443 km
远距离
9.157636E-5 中风险 0.74
CDM_260912-160105-892706-817124
OBJECT L (58927)
2026-09-12T
16:01:37+0000
0.910 km
远距离
3.679072E-5 中风险 0.66
CDM_260913-175806-477206-817121
2026-09-13T
17:58:17+0000
0.670 km
远距离
3.095354E-5 中风险 0.65
CDM_260912-164805-892706-817124
OBJECT L (58927)
2026-09-12T
16:48:31+0000
0.969 km
远距离
2.970402E-5 中风险 0.64
CDM_260913-083306-370506-817121
2026-09-13T
08:33:57+0000
1.096 km
极远距离
8.696596E-6 低风险 0.54
CDM_260912-165806-618806-817121
2026-09-12T
16:58:05+0000
1.188 km
极远距离
4.064799E-6 低风险 0.47
CDM_260912-183106-618806-817121
2026-09-12T
18:31:52+0000
1.195 km
极远距离
3.988092E-6 低风险 0.47
与全量物体交会距离演化趋势
与全量物体交会风险概率演化趋势